Flag for Liechtenstein Weather past 2 weeks in Vaduz, Liechtenstein

Now
65 °F

Mild.


Feels Like: 65 °F
Forecast: 64 / 91 °F
Wind: No wind

Location: Vaduz

Current Time: Aug 4, 2015 at 9:55:48 PM

Latest Report: Aug 4, 2015 at 9:00 PM


Visibility: N/A

Pressure: 30.08 "Hg

Humidity: 97%

Dew point: 64 °F

Location of VaduzLocation

Historic Weather in Vaduz — Graph

°F

Vaduz temperature yesterday

Maximum temperature yesterday: 84 °F (at 5:00 PM)
Minimum temperature yesterday: 64 °F (at 7:00 AM)
Average temperature yesterday: 73 °F

Past Weeks' High & Low Weather Summary

 TemperatureHumidityPressure
High91 °F (Jul 22, 4:00 PM)96% (Jul 23, 5:00 AM)30.13 "Hg (Jul 23, 5:00 AM)
Low48 °F (Jul 31, 6:00 AM)39% (Jul 22, 4:00 PM)29.67 "Hg (Jul 24, 7:00 PM)
Average68 °F72%29.94 "Hg
* Reported Jul 20 8:00 PM — Aug 4 8:00 PM, Vaduz, Weather by CustomWeather, © 2015

Note: Actual official high and low records may vary slightly from our data, if they occured in-between our weather recording intervals... More about our weather records

Advertising

Vaduz weather history for previous 24 hours

 ConditionsComfort  
Time TempWeatherWind HumidityBarometerVisibility
8:00 PM
Tue, Aug 4
68 °FFog.No wind92%30.06 "Hg6 mi
7:00 PM68 °FMild.3 mph89%30.06 "HgN/A
6:00 PM67 °FMild.2 mph93%30.06 "HgN/A
5:00 PM75 °FOvercast.8 mph54%30.01 "Hg7 mi
4:00 PM78 °FWarm.12 mph53%29.96 "HgN/A
3:00 PM82 °FWarm.8 mph47%29.93 "HgN/A
2:00 PM82 °FScattered clouds.8 mph49%29.93 "Hg8 mi
1:00 PM84 °FWarm.12 mph46%29.92 "HgN/A
12:00 PM83 °FWarm.7 mph46%29.92 "HgN/A
11:00 AM79 °FPassing clouds.3 mph53%29.93 "Hg11 mi
10:00 AM76 °FMild.5 mph54%29.94 "HgN/A
9:00 AM72 °FMild.5 mph58%29.93 "HgN/A
8:00 AM69 °FSunny.6 mph64%29.97 "Hg6 mi
7:00 AM69 °FMild.6 mph64%29.96 "HgN/A
5:00 AM69 °FFog.5 mph68%29.96 "Hg6 mi
4:00 AM71 °FMild.5 mph63%29.97 "HgN/A
3:00 AM71 °FMild.6 mph66%29.97 "HgN/A
2:00 AM72 °FFog.6 mph64%29.97 "Hg6 mi
1:00 AM71 °FMild.5 mph69%29.98 "HgN/A
12:00 AM69 °FMild.5 mph76%29.99 "HgN/A
10:00 PM
Mon, Aug 3
70 °FMild.No wind80%29.99 "HgN/A
9:00 PM71 °FMild.No wind82%29.99 "HgN/A
Weather by CustomWeather, © 2015

See weather overviewHow to use our weather pages